Date String (YYYY-MM-DD hh:mm:ss) UTC,Instrument flags,absolute air pressure of the measurement (hPa),sample flow rate (lpm),inlet stack bypass flow (lpm),air temperature of the measurement (°C),ambient temperature measured by the external sensor (°C),aerosol sample conditioner tube jacket temperature (°C),OPC LED temperature (°C),internal box temperature (°C),relative humidity of the measurement (%),span deviation,mass concentration of particles derived from Lorenz-Mie calculation of OPC scattering (μg/m³),mass concentration of particles derived from Lorenz-Mie calculation of OPC scattering (μg/m³),mass concentration of particles derived from Lorenz-Mie calculation of OPC scattering (μg/m³)
DateTimeUTC,F1_M11,P_M11,Q1_M11,Q2_M11,T1_M11,T2_M11,T3_M11,T4_M11,T5_M11,U1_M11,ZSPAN_M11,X0_M11,X2_M11,X1_M11
2023-06-05 20:00:00,SystemResetWarning,0834.0,5.01,000.00,029.6,026.0,000.0,037.7,031.0,30.7,0002.0,0010.48,0006.91,0006.56
2023-06-05 20:01:00,SystemResetWarning,0833.9,5.00,000.00,029.5,026.0,000.0,037.7,030.9,30.5,0001.8,0010.40,0006.89,0006.56
2023-06-05 20:02:00,SystemResetWarning,0834.0,5.01,000.00,029.4,026.3,000.0,037.7,030.9,31.0,0001.2,0010.50,0006.85,0006.53
2023-06-05 20:03:00,SystemResetWarning,0834.0,5.00,000.00,029.4,026.6,000.0,037.7,031.0,31.0,0001.0,0010.09,0006.85,0006.51
2023-06-05 20:04:00,SystemResetWarning,0834.0,4.99,000.00,029.4,026.9,000.0,037.7,031.0,31.1,0001.3,0010.42,0006.84,0006.48
2023-06-05 20:05:00,SystemResetWarning,0834.0,4.99,000.00,029.4,027.2,000.0,037.7,031.1,30.7,0001.3,0010.57,0006.85,0006.48
2023-06-05 20:06:00,SystemResetWarning,0833.9,5.00,000.00,029.4,027.4,000.0,037.7,031.1,30.6,0001.2,0010.59,0006.88,0006.49
2023-06-05 20:07:00,SystemResetWarning,0834.0,5.01,000.00,029.4,027.7,000.0,037.7,031.1,30.9,0001.3,0010.54,0006.86,0006.48
2023-06-05 20:08:00,SystemResetWarning,0834.0,5.01,000.00,029.5,027.8,000.0,037.7,031.2,31.2,0001.7,0010.58,0006.84,0006.45
2023-06-05 20:09:00,SystemResetWarning,0834.0,5.00,000.00,029.5,028.0,000.0,037.8,031.2,31.4,0001.9,0010.70,0006.84,0006.44
2023-06-05 20:10:00,SystemResetWarning,0834.0,5.00,000.00,029.5,028.1,000.0,037.8,031.2,31.2,0001.8,0010.70,0006.83,0006.43
2023-06-05 20:11:00,SystemResetWarning,0834.0,4.99,000.00,029.6,028.2,000.0,037.8,031.3,30.3,0002.2,0010.90,0006.81,0006.41
2023-06-05 20:12:00,SystemResetWarning,0834.0,5.00,000.00,029.6,028.3,000.0,037.8,031.3,29.6,0002.4,0011.78,0006.77,0006.38
2023-06-05 20:13:00,SystemResetWarning,0834.0,5.01,000.00,029.6,028.3,000.0,037.8,031.3,30.2,0002.7,0012.02,0006.76,0006.36
2023-06-05 20:14:00,SystemResetWarning,0834.0,4.99,000.00,029.6,027.3,000.0,037.8,031.2,29.9,0002.8,0011.98,0006.75,0006.34
2023-06-05 20:15:00,SystemResetWarning,0834.0,4.99,000.00,029.6,026.1,000.0,037.7,031.0,30.7,0002.6,0011.60,0006.71,0006.32
2023-06-05 20:16:00,SystemResetWarning,0834.0,5.01,000.00,029.5,025.9,000.0,037.7,030.9,30.2,0002.5,0011.18,0006.70,0006.30
2023-06-05 20:17:00,SystemResetWarning,0833.9,5.01,000.00,029.4,026.2,000.0,037.7,030.9,30.3,0002.6,0011.16,0006.67,0006.26
2023-06-05 20:18:00,SystemResetWarning,0834.0,5.00,000.00,029.4,026.5,000.0,037.7,030.9,30.4,0002.8,0011.22,0006.65,0006.24
2023-06-05 20:19:00,SystemResetWarning,0834.0,4.99,000.00,029.4,026.8,000.0,037.7,031.0,30.1,0002.6,0011.45,0006.65,0006.25
2023-06-05 20:20:00,SystemResetWarning,0833.9,4.99,000.00,029.4,027.1,000.0,037.7,031.0,30.6,0002.5,0011.46,0006.62,0006.23
2023-06-05 20:21:00,SystemResetWarning,0834.0,5.00,000.00,029.4,027.4,000.0,037.7,031.1,30.3,0002.6,0011.40,0006.57,0006.19
2023-06-05 20:22:00,SystemResetWarning,0834.0,5.01,000.00,029.4,027.6,000.0,037.7,031.1,30.9,0002.4,0011.28,0006.53,0006.14
2023-06-05 20:23:00,SystemResetWarning,0833.9,5.01,000.00,029.5,027.8,000.0,037.7,031.1,31.3,0002.5,0010.27,0006.47,0006.09
2023-06-05 20:24:00,SystemResetWarning,0834.0,4.99,000.00,029.5,027.9,000.0,037.8,031.2,30.5,0002.6,0010.08,0006.41,0006.03
2023-06-05 20:25:00,SystemResetWarning,0833.9,4.99,000.00,029.5,028.0,000.0,037.8,031.2,29.7,0003.1,0009.95,0006.35,0005.99
2023-06-05 20:26:00,SystemResetWarning,0833.9,4.99,000.00,029.5,028.1,000.0,037.8,031.2,29.8,0003.4,0009.94,0006.34,0005.96
2023-06-05 20:27:00,SystemResetWarning,0833.9,5.01,000.00,029.6,028.2,000.0,037.8,031.3,30.5,0003.7,0009.90,0006.29,0005.92
2023-06-05 20:28:00,SystemResetWarning,0833.9,5.00,000.00,029.6,028.2,000.0,037.8,031.3,31.2,0003.7,0010.19,0006.22,0005.86
2023-06-05 20:29:00,SystemResetWarning,0833.9,4.99,000.00,029.6,027.1,000.0,037.8,031.1,29.9,0003.5,0010.12,0006.15,0005.81
2023-06-05 20:30:00,SystemResetWarning,0833.9,5.00,000.00,029.5,026.0,000.0,037.7,030.9,30.3,0003.4,0009.72,0006.06,0005.74
2023-06-05 20:31:00,SystemResetWarning,0833.8,5.01,000.00,029.5,025.9,000.0,037.7,030.9,30.3,0003.4,0009.50,0006.03,0005.71
2023-06-05 20:32:00,SystemResetWarning,0833.9,5.01,000.00,029.4,026.1,000.0,037.7,030.9,30.3,0003.3,0009.48,0006.03,0005.71
2023-06-05 20:33:00,SystemResetWarning,0833.8,4.99,000.00,029.4,026.5,000.0,037.7,030.9,30.1,0003.3,0009.44,0006.01,0005.71
2023-06-05 20:34:00,SystemResetWarning,0833.8,5.00,000.00,029.4,026.8,000.0,037.7,031.0,30.7,0003.3,0009.48,0006.02,0005.70
2023-06-05 20:35:00,SystemResetWarning,0833.8,5.00,000.00,029.4,027.1,000.0,037.7,031.0,31.6,0003.1,0009.36,0006.06,0005.71
2023-06-05 20:36:00,SystemResetWarning,0833.8,5.01,000.00,029.4,027.4,000.0,037.7,031.0,29.7,0002.9,0009.35,0006.06,0005.68
2023-06-05 20:37:00,SystemResetWarning,0833.8,5.01,000.00,029.4,027.6,000.0,037.7,031.1,29.9,0002.8,0009.26,0006.01,0005.66
2023-06-05 20:38:00,SystemResetWarning,0833.8,4.99,000.00,029.4,027.7,000.0,037.7,031.1,30.1,0002.4,0009.20,0005.97,0005.64
2023-06-05 20:39:00,SystemResetWarning,0833.8,4.99,000.00,029.4,027.9,000.0,037.7,031.2,30.4,0002.1,0008.96,0005.98,0005.63
2023-06-05 20:40:00,SystemResetWarning,0833.8,5.00,000.00,029.5,028.0,000.0,037.8,031.2,29.2,0001.8,0008.82,0006.00,0005.64
2023-06-05 20:41:00,SystemResetWarning,0833.8,5.01,000.00,029.5,028.1,000.0,037.8,031.2,29.6,0001.9,0008.97,0006.03,0005.65
2023-06-05 20:42:00,SystemResetWarning,0833.7,4.99,000.00,029.5,028.2,000.0,037.8,031.3,29.7,0002.2,0009.07,0006.04,0005.64
2023-06-05 20:43:00,SystemResetWarning,0833.8,5.00,000.00,029.6,028.3,000.0,037.8,031.3,29.8,0002.3,0009.16,0006.06,0005.63
2023-06-05 20:44:00,SystemResetWarning,0833.8,4.99,000.00,029.6,027.8,000.0,037.8,031.2,29.4,0002.2,0009.26,0006.06,0005.61
2023-06-05 20:45:00,SystemResetWarning,0833.8,5.00,000.00,029.5,026.2,000.0,037.7,030.9,29.5,0001.8,0009.25,0006.05,0005.60
2023-06-05 20:46:00,SystemResetWarning,0833.8,5.01,000.00,029.5,025.1,000.0,037.6,030.8,29.7,0001.4,0009.11,0006.03,0005.60
2023-06-05 20:47:00,SystemResetWarning,0833.7,5.01,000.00,029.4,025.0,000.0,037.6,030.6,29.6,0001.5,0009.15,0006.00,0005.59
2023-06-05 20:48:00,SystemResetWarning,0833.7,5.01,000.00,029.3,025.3,000.0,037.6,030.6,30.4,0001.1,0009.29,0006.02,0005.59
2023-06-05 20:49:00,SystemResetWarning,0833.7,5.00,000.00,029.2,025.7,000.0,037.6,030.7,30.1,0001.1,0009.42,0006.03,0005.60
2023-06-05 20:50:00,SystemResetWarning,0833.7,5.00,000.00,029.2,026.1,000.0,037.6,030.7,30.1,0001.5,0009.97,0006.01,0005.60
2023-06-05 20:51:00,SystemResetWarning,0833.7,5.00,000.00,029.2,026.5,000.0,037.6,030.8,30.4,0001.7,0010.00,0006.02,0005.61
2023-06-05 20:52:00,SystemResetWarning,0833.7,5.00,000.00,029.2,026.8,000.0,037.6,030.8,29.6,0001.4,0009.90,0006.00,0005.60
2023-06-05 20:53:00,SystemResetWarning,0833.7,5.00,000.00,029.2,027.1,000.0,037.6,030.9,29.6,0000.9,0009.89,0005.99,0005.58
2023-06-05 20:54:00,SystemResetWarning,0833.7,5.00,000.00,029.3,027.3,000.0,037.6,030.9,30.2,0000.8,0009.89,0005.97,0005.58
2023-06-05 20:55:00,SystemResetWarning,0833.7,5.00,000.00,029.3,027.5,000.0,037.6,030.9,29.8,0001.2,0009.86,0005.96,0005.57
2023-06-05 20:56:00,SystemResetWarning,0833.7,4.99,000.00,029.3,027.7,000.0,037.6,031.0,30.2,0001.6,0009.88,0005.96,0005.58
2023-06-05 20:57:00,SystemResetWarning,0833.7,5.00,000.00,029.3,027.9,000.0,037.6,031.0,29.5,0002.1,0009.74,0005.92,0005.58
2023-06-05 20:58:00,SystemResetWarning,0833.6,5.00,000.00,029.4,028.0,000.0,037.6,031.1,29.7,0002.3,0009.59,0005.92,0005.59
2023-06-05 20:59:00,SystemResetWarning,0833.7,5.00,000.00,029.4,028.1,000.0,037.6,031.1,30.0,0002.6,0009.57,0005.94,0005.61
